| time (UTC) | temp F | wind direction | speed MPH | gust MPH | rain 1hr in | rain 24hr in | rain mn in | humidity % | barometer mb |
| 20260905102044 | 78 | 164 | 1.0 | 4.0 | 0.00 | 0.00 | 0.00 | 54 | 1010.5 |
| 20260905101544 | 78 | 164 | 1.0 | 4.0 | 0.00 | 0.00 | 0.00 | 54 | 1010.4 |
| 20260905101043 | 79 | 164 | 2.0 | 4.0 | 0.00 | 0.00 | 0.00 | 54 | 1010.4 |
| 20260905100542 | 79 | 164 | 2.0 | 5.0 | 0.00 | 0.00 | 0.00 | 54 | 1010.4 |
| 20260905100041 | 79 | 164 | 2.0 | 6.0 | 0.00 | 0.00 | 0.00 | 54 | 1010.3 |
| 20260905095540 | 79 | 164 | 3.0 | 6.0 | 0.00 | 0.00 | 0.00 | 53 | 1010.3 |
| 20260905095040 | 79 | 165 | 2.0 | 7.0 | 0.00 | 0.00 | 0.00 | 53 | 1010.3 |
| 20260905094539 | 79 | 164 | 4.0 | 9.0 | 0.00 | 0.00 | 0.00 | 53 | 1010.3 |
| 20260905094042 | 80 | 162 | 4.0 | 10.0 | 0.00 | 0.00 | 0.00 | 52 | 1010.3 |
| 20260905093042 | 80 | 184 | 4.0 | 9.0 | 0.00 | 0.00 | 0.00 | 52 | 1010.2 |
| 20260905092539 | 80 | 158 | 5.0 | 12.0 | 0.00 | 0.00 | 0.00 | 52 | 1010.1 |
| 20260905092038 | 80 | 193 | 5.0 | 9.0 | 0.00 | 0.00 | 0.00 | 52 | 1010.1 |
| 20260905091537 | 80 | 171 | 5.0 | 9.0 | 0.00 | 0.00 | 0.00 | 51 | 1010.1 |
| 20260905091037 | 80 | 171 | 4.0 | 9.0 | 0.00 | 0.00 | 0.00 | 51 | 1010.1 |
| 20260905090539 | 80 | 183 | 4.0 | 11.0 | 0.00 | 0.00 | 0.00 | 51 | 1010.0 |
| 20260905090037 | 80 | 164 | 6.0 | 11.0 | 0.00 | 0.00 | 0.00 | 51 | 1010.0 |
| 20260905085537 | 81 | 190 | 5.0 | 9.0 | 0.00 | 0.00 | 0.00 | 51 | 1010.2 |
| 20260905085036 | 81 | 187 | 4.0 | 9.0 | 0.00 | 0.00 | 0.00 | 51 | 1010.3 |
| 20260905084538 | 81 | 179 | 4.0 | 10.0 | 0.00 | 0.00 | 0.00 | 51 | 1010.3 |
| 20260905084037 | 81 | 206 | 4.0 | 8.0 | 0.00 | 0.00 | 0.00 | 51 | 1010.3 |
| 20260905083036 | 81 | 160 | 3.0 | 8.0 | 0.00 | 0.00 | 0.00 | 51 | 1010.3 |
| 20260905082536 | 81 | 166 | 3.0 | 8.0 | 0.00 | 0.00 | 0.00 | 51 | 1010.4 |
| 20260905082036 | 80 | 193 | 3.0 | 6.0 | 0.00 | 0.00 | 0.00 | 51 | 1010.5 |
| 20260905081536 | 80 | 187 | 3.0 | 6.0 | 0.00 | 0.00 | 0.00 | 51 | 1010.4 |
| 20260905081035 | 80 | 193 | 2.0 | 6.0 | 0.00 | 0.00 | 0.00 | 51 | 1010.5 |
| 20260905080535 | 80 | 198 | 3.0 | 8.0 | 0.00 | 0.00 | 0.00 | 51 | 1010.5 |
| 20260905080037 | 81 | 200 | 3.0 | 8.0 | 0.00 | 0.00 | 0.00 | 51 | 1010.4 |
| 20260905075536 | 81 | 187 | 3.0 | 12.0 | 0.00 | 0.00 | 0.00 | 51 | 1010.4 |
| 20260905075034 | 81 | 180 | 3.0 | 12.0 | 0.00 | 0.00 | 0.00 | 51 | 1010.4 |
| 20260905074534 | 81 | 165 | 2.0 | 6.0 | 0.00 | 0.00 | 0.00 | 51 | 1010.4 |
| 20260905074035 | 81 | 163 | 3.0 | 6.0 | 0.00 | 0.00 | 0.00 | 51 | 1010.6 |
| 20260905073038 | 81 | 168 | 3.0 | 6.0 | 0.00 | 0.00 | 0.00 | 51 | 1010.6 |
| 20260905072533 | 81 | 168 | 2.0 | 6.0 | 0.00 | 0.00 | 0.00 | 51 | 1010.6 |
| 20260905072033 | 81 | 145 | 2.0 | 5.0 | 0.00 | 0.00 | 0.00 | 51 | 1010.5 |
| 20260905071537 | 81 | 146 | 2.0 | 5.0 | 0.00 | 0.00 | 0.00 | 51 | 1010.5 |
| 20260905071032 | 81 | 146 | 2.0 | 5.0 | 0.00 | 0.00 | 0.00 | 51 | 1010.4 |
| 20260905070535 | 81 | 146 | 2.0 | 4.0 | 0.00 | 0.00 | 0.00 | 51 | 1010.4 |
| 20260905070046 | 81 | 146 | 1.0 | 5.0 | 0.00 | 0.00 | 0.00 | 51 | 1010.5 |
| 20260905065532 | 81 | 146 | 2.0 | 5.0 | 0.00 | 0.00 | 0.00 | 51 | 1010.4 |
| 20260905065031 | 81 | 146 | 2.0 | 4.0 | 0.00 | 0.00 | 0.00 | 51 | 1010.4 |
| 20260905064542 | 81 | 146 | 2.0 | 4.0 | 0.00 | 0.00 | 0.00 | 51 | 1010.4 |
| 20260905064030 | 81 | 146 | 2.0 | 4.0 | 0.00 | 0.00 | 0.00 | 50 | 1010.3 |
| 20260905063031 | 81 | 146 | 3.0 | 5.0 | 0.00 | 0.00 | 0.00 | 50 | 1010.2 |
| 20260905062530 | 81 | 145 | 2.0 | 5.0 | 0.00 | 0.00 | 0.00 | 50 | 1010.3 |
| 20260905062030 | 81 | 145 | 2.0 | 5.0 | 0.00 | 0.00 | 0.00 | 50 | 1010.2 |
| 20260905061529 | 81 | 153 | 2.0 | 4.0 | 0.00 | 0.00 | 0.00 | 49 | 1010.2 |
| 20260905061028 | 81 | 154 | 2.0 | 4.0 | 0.00 | 0.00 | 0.00 | 49 | 1010.2 |
| 20260905060528 | 82 | 154 | 1.0 | 4.0 | 0.00 | 0.00 | 0.00 | 49 | 1010.0 |
| 20260905060028 | 82 | 153 | 2.0 | 4.0 | 0.00 | 0.00 | 0.00 | 49 | 1010.2 |
| 20260905055529 | 82 | 153 | 1.0 | 4.0 | 0.00 | 0.00 | 0.00 | 49 | 1010.1 |
| 20260905055032 | 82 | 153 | 1.0 | 5.0 | 0.00 | 0.00 | 0.00 | 49 | 1010.0 |
| 20260905054535 | 82 | 153 | 2.0 | 6.0 | 0.00 | 0.00 | 0.00 | 49 | 1010.0 |
| 20260905054030 | 82 | 153 | 3.0 | 8.0 | 0.00 | 0.00 | 0.00 | 49 | 1010.1 |
| 20260905053025 | 82 | 159 | 4.0 | 6.0 | 0.00 | 0.00 | 0.00 | 49 | 1010.0 |
| 20260905052525 | 82 | 157 | 2.0 | 5.0 | 0.00 | 0.00 | 0.00 | 49 | 1010.0 |
| 20260905052025 | 82 | 156 | 2.0 | 5.0 | 0.00 | 0.00 | 0.00 | 49 | 1010.1 |
| 20260905051538 | 82 | 157 | 3.0 | 5.0 | 0.00 | 0.00 | 0.00 | 49 | 1010.1 |
| 20260905051023 | 82 | 157 | 2.0 | 4.0 | 0.00 | 0.00 | 0.00 | 49 | 1010.1 |
| 20260905050524 | 82 | 156 | 2.0 | 5.0 | 0.00 | 0.00 | 0.00 | 49 | 1010.3 |
| 20260905050020 | 82 | 157 | 2.0 | 8.0 | 0.00 | 0.00 | 0.00 | 49 | 1010.3 |
| 20260905045521 | 82 | 158 | 3.0 | 8.0 | 0.00 | 0.00 | 0.00 | 49 | 1010.3 |
| 20260905045021 | 82 | 194 | 2.0 | 8.0 | 0.00 | 0.00 | 0.00 | 49 | 1010.2 |
| 20260905044521 | 82 | 179 | 3.0 | 6.0 | 0.00 | 0.00 | 0.00 | 50 | 1010.2 |
| 20260905044020 | 82 | 175 | 3.0 | 6.0 | 0.00 | 0.00 | 0.00 | 50 | 1010.2 |
| 20260905043022 | 82 | 174 | 3.0 | 6.0 | 0.00 | 0.00 | 0.00 | 50 | 1010.1 |
| 20260905042521 | 82 | 181 | 2.0 | 6.0 | 0.00 | 0.00 | 0.00 | 50 | 1010.2 |
| 20260905042021 | 82 | 191 | 2.0 | 6.0 | 0.00 | 0.00 | 0.00 | 50 | 1010.2 |
| 20260905041521 | 82 | 174 | 3.0 | 6.0 | 0.00 | 0.00 | 0.00 | 50 | 1010.1 |
| 20260905041020 | 82 | 174 | 3.0 | 6.0 | 0.00 | 0.00 | 0.00 | 50 | 1010.1 |
| 20260905040520 | 82 | 162 | 3.0 | 6.0 | 0.00 | 0.00 | 0.00 | 50 | 1010.1 |
| 20260905040024 | 82 | 161 | 3.0 | 7.0 | 0.00 | 0.00 | 0.00 | 50 | 1010.2 |
| 20260905035519 | 81 | 161 | 3.0 | 9.0 | 0.00 | 0.00 | 0.00 | 50 | 1010.2 |
| 20260905035021 | 81 | 142 | 4.0 | 9.0 | 0.00 | 0.00 | 0.00 | 51 | 1010.3 |
| 20260905034528 | 81 | 131 | 3.0 | 9.0 | 0.00 | 0.00 | 0.00 | 51 | 1010.3 |
| 20260905034020 | 81 | 160 | 3.0 | 6.0 | 0.00 | 0.00 | 0.00 | 51 | 1010.4 |
| 20260905033026 | 81 | 166 | 2.0 | 6.0 | 0.00 | 0.00 | 0.00 | 50 | 1010.4 |
| 20260905032521 | 81 | 185 | 4.0 | 9.0 | 0.00 | 0.00 | 0.00 | 51 | 1010.4 |
| 20260905032024 | 81 | 183 | 4.0 | 10.0 | 0.00 | 0.00 | 0.00 | 50 | 1010.3 |
| 20260905031521 | 81 | 183 | 5.0 | 10.0 | 0.00 | 0.00 | 0.00 | 50 | 1010.4 |
| 20260905031020 | 81 | 185 | 4.0 | 10.0 | 0.00 | 0.00 | 0.00 | 50 | 1010.4 |
| 20260905030521 | 81 | 169 | 5.0 | 10.0 | 0.00 | 0.00 | 0.00 | 49 | 1010.3 |
| 20260905030022 | 82 | 182 | 4.0 | 9.0 | 0.00 | 0.00 | 0.00 | 48 | 1010.1 |
| 20260905025522 | 82 | 175 | 4.0 | 9.0 | 0.00 | 0.00 | 0.00 | 48 | 1010.0 |
| 20260905025020 | 82 | 178 | 4.0 | 11.0 | 0.00 | 0.00 | 0.00 | 48 | 1009.9 |
| 20260905024523 | 82 | 191 | 8.0 | 11.0 | 0.00 | 0.00 | 0.00 | 48 | 1009.9 |
| 20260905024021 | 81 | 196 | 6.0 | 14.0 | 0.00 | 0.00 | 0.00 | 49 | 1009.8 |
| 20260905023017 | 81 | 200 | 8.0 | 14.0 | 0.00 | 0.00 | 0.00 | 49 | 1009.8 |
| 20260905022517 | 81 | 213 | 9.0 | 12.0 | 0.00 | 0.00 | 0.00 | 49 | 1009.9 |
| 20260905022017 | 81 | 204 | 5.0 | 11.0 | 0.00 | 0.00 | 0.00 | 50 | 1010.1 |
| 20260905021533 | 81 | 199 | 7.0 | 14.0 | 0.00 | 0.00 | 0.00 | 50 | 1010.3 |
| 20260905021016 | 81 | 194 | 8.0 | 15.0 | 0.00 | 0.00 | 0.00 | 50 | 1010.3 |
| 20260905020517 | 80 | 185 | 10.0 | 15.0 | 0.00 | 0.00 | 0.00 | 51 | 1010.3 |
| 20260905020021 | 80 | 173 | 8.0 | 13.0 | 0.00 | 0.00 | 0.00 | 51 | 1010.3 |
| 20260905015515 | 80 | 189 | 6.0 | 15.0 | 0.00 | 0.00 | 0.00 | 52 | 1010.2 |
| 20260905015017 | 80 | 189 | 9.0 | 18.0 | 0.00 | 0.00 | 0.00 | 52 | 1010.4 |
| 20260905014515 | 80 | 208 | 13.0 | 20.0 | 0.00 | 0.00 | 0.00 | 52 | 1010.3 |
| 20260905014015 | 81 | 199 | 12.0 | 19.0 | 0.00 | 0.00 | 0.00 | 50 | 1010.6 |
| 20260905013018 | 81 | 191 | 6.0 | 16.0 | 0.00 | 0.00 | 0.00 | 50 | 1010.3 |
| 20260905012518 | 81 | 164 | 8.0 | 17.0 | 0.00 | 0.00 | 0.00 | 50 | 1010.1 |
| 20260905012018 | 81 | 188 | 11.0 | 21.0 | 0.00 | 0.00 | 0.00 | 50 | 1010.1 |
| 20260905011517 | 81 | 185 | 13.0 | 32.0 | 0.00 | 0.00 | 0.00 | 50 | 1010.1 |
| 20260905011019 | 81 | 167 | 16.0 | 32.0 | 0.00 | 0.00 | 0.00 | 50 | 1009.8 |
| 20260905010518 | 81 | 133 | 14.0 | 26.0 | 0.00 | 0.00 | 0.00 | 50 | 1009.3 |
| 20260905010020 | 82 | 148 | 11.0 | 24.0 | 0.00 | 0.00 | 0.00 | 49 | 1009.1 |
| 20260905005517 | 83 | 158 | 13.0 | 25.0 | 0.00 | 0.00 | 0.00 | 47 | 1008.9 |
| 20260905005017 | 84 | 173 | 12.0 | 25.0 | 0.00 | 0.00 | 0.00 | 47 | 1008.7 |
| 20260905004520 | 84 | 185 | 9.0 | 22.0 | 0.00 | 0.00 | 0.00 | 47 | 1008.6 |
| 20260905004017 | 85 | 75 | 12.0 | 26.0 | 0.00 | 0.00 | 0.00 | 45 | 1008.6 |
| 20260905003028 | 85 | 127 | 9.0 | 19.0 | 0.00 | 0.00 | 0.00 | 44 | 1008.5 |
| 20260905002520 | 85 | 112 | 10.0 | 22.0 | 0.00 | 0.00 | 0.00 | 44 | 1008.4 |
| 20260905002020 | 85 | 136 | 9.0 | 33.0 | 0.00 | 0.00 | 0.00 | 44 | 1008.2 |
| 20260905001520 | 86 | 127 | 15.0 | 33.0 | 0.00 | 0.00 | 0.00 | 43 | 1008.1 |
| 20260905001020 | 88 | 152 | 17.0 | 31.0 | 0.00 | 0.00 | 0.00 | 41 | 1008.0 |
| 20260905000520 | 89 | 104 | 13.0 | 29.0 | 0.00 | 0.00 | 0.00 | 38 | 1007.9 |
| 20260905000020 | 92 | 137 | 18.0 | 27.0 | 0.00 | 0.00 | 0.00 | 35 | 1007.8 |
| 20260904235519 | 97 | 127 | 14.0 | 26.0 | 0.00 | 0.00 | 0.00 | 28 | 1007.8 |
| 20260904235019 | 100 | 163 | 7.0 | 13.0 | 0.00 | 0.00 | 0.00 | 22 | 1007.2 |
| 20260904234519 | 100 | 179 | 8.0 | 13.0 | 0.00 | 0.00 | 0.00 | 22 | 1007.2 |
| 20260904234021 | 100 | 183 | 10.0 | 17.0 | 0.00 | 0.00 | 0.00 | 22 | 1007.0 |
| 20260904233014 | 100 | 157 | 4.0 | 13.0 | 0.00 | 0.00 | 0.00 | 21 | 1006.8 |
| 20260904232515 | 100 | 199 | 4.0 | 10.0 | 0.00 | 0.00 | 0.00 | 20 | 1006.8 |
| 20260904232012 | 100 | 181 | 4.0 | 11.0 | 0.00 | 0.00 | 0.00 | 20 | 1006.8 |
| 20260904231513 | 100 | 150 | 2.0 | 12.0 | 0.00 | 0.00 | 0.00 | 19 | 1006.6 |
| 20260904231013 | 100 | 165 | 5.0 | 12.0 | 0.00 | 0.00 | 0.00 | 20 | 1006.4 |
| 20260904230513 | 100 | 192 | 5.0 | 15.0 | 0.00 | 0.00 | 0.00 | 20 | 1006.3 |
| 20260904230013 | 100 | 198 | 9.0 | 15.0 | 0.00 | 0.00 | 0.00 | 20 | 1006.3 |
| 20260904225514 | 100 | 176 | 5.0 | 11.0 | 0.00 | 0.00 | 0.00 | 21 | 1006.1 |
| 20260904225013 | 100 | 194 | 5.0 | 13.0 | 0.00 | 0.00 | 0.00 | 21 | 1006.0 |
| 20260904224514 | 100 | 187 | 6.0 | 13.0 | 0.00 | 0.00 | 0.00 | 21 | 1006.0 |
| 20260904224013 | 100 | 194 | 5.0 | 13.0 | 0.00 | 0.00 | 0.00 | 21 | 1006.0 |
| 20260904223015 | 100 | 227 | 9.0 | 13.0 | 0.00 | 0.00 | 0.00 | 22 | 1006.0 |
| 20260904222517 | 100 | 197 | 5.0 | 14.0 | 0.00 | 0.00 | 0.00 | 22 | 1006.1 |
| 20260904222014 | 100 | 195 | 8.0 | 17.0 | 0.00 | 0.00 | 0.00 | 21 | 1006.1 |
| 20260904221533 | 100 | 135 | 8.0 | 17.0 | 0.00 | 0.00 | 0.00 | 21 | 1006.2 |
| 20260904221013 | 100 | 165 | 3.0 | 11.0 | 0.00 | 0.00 | 0.00 | 22 | 1006.3 |
| 20260904220513 | 100 | 122 | 5.0 | 15.0 | 0.00 | 0.00 | 0.00 | 23 | 1006.3 |
| 20260904220012 | 100 | 202 | 9.0 | 15.0 | 0.00 | 0.00 | 0.00 | 22 | 1006.4 |
| 20260904215512 | 100 | 204 | 10.0 | 15.0 | 0.00 | 0.00 | 0.00 | 22 | 1006.5 |
| 20260904215011 | 101 | 189 | 8.0 | 15.0 | 0.00 | 0.00 | 0.00 | 21 | 1006.5 |
| 20260904214515 | 101 | 200 | 6.0 | 13.0 | 0.00 | 0.00 | 0.00 | 22 | 1006.4 |
| 20260904214014 | 101 | 137 | 5.0 | 9.0 | 0.00 | 0.00 | 0.00 | 21 | 1006.4 |
| 20260904213015 | 100 | 117 | 3.0 | 8.0 | 0.00 | 0.00 | 0.00 | 20 | 1006.5 |
| 20260904212510 | 100 | 244 | 5.0 | 14.0 | 0.00 | 0.00 | 0.00 | 18 | 1006.7 |
| 20260904212009 | 100 | 222 | 5.0 | 15.0 | 0.00 | 0.00 | 0.00 | 20 | 1006.8 |
| 20260904211509 | 100 | 239 | 7.0 | 11.0 | 0.00 | 0.00 | 0.00 | 20 | 1006.8 |
| 20260904211011 | 100 | 211 | 4.0 | 10.0 | 0.00 | 0.00 | 0.00 | 21 | 1006.9 |
| 20260904210507 | 100 | 89 | 2.0 | 12.0 | 0.00 | 0.00 | 0.00 | 21 | 1007.0 |
| 20260904210006 | 100 | 183 | 7.0 | 14.0 | 0.00 | 0.00 | 0.00 | 22 | 1007.3 |
| 20260904205505 | 100 | 186 | 9.0 | 14.0 | 0.00 | 0.00 | 0.00 | 22 | 1007.3 |
| 20260904205003 | 100 | 127 | 2.0 | 11.0 | 0.00 | 0.00 | 0.00 | 22 | 1007.4 |
| 20260904204505 | 100 | 188 | 4.0 | 11.0 | 0.00 | 0.00 | 0.00 | 21 | 1007.6 |
| 20260904204006 | 99 | 207 | 4.0 | 11.0 | 0.00 | 0.00 | 0.00 | 21 | 1007.7 |
| 20260904203056 | 99 | 189 | 6.0 | 12.0 | 0.00 | 0.00 | 0.00 | 21 | 1007.9 |
| 20260904202556 | 98 | 110 | 3.0 | 12.0 | 0.00 | 0.00 | 0.00 | 23 | 1007.9 |
| 20260904202054 | 98 | 164 | 5.0 | 11.0 | 0.00 | 0.00 | 0.00 | 23 | 1008.0 |
| 20260904201555 | 98 | 244 | 4.0 | 10.0 | 0.00 | 0.00 | 0.00 | 24 | 1008.0 |
| 20260904201055 | 98 | 199 | 4.0 | 11.0 | 0.00 | 0.00 | 0.00 | 23 | 1008.1 |
| 20260904200555 | 98 | 198 | 3.0 | 10.0 | 0.00 | 0.00 | 0.00 | 25 | 1008.2 |
| 20260904200121 | 98 | 194 | 5.0 | 10.0 | 0.00 | 0.00 | 0.00 | 25 | 1008.3 |
| 20260904195552 | 99 | 220 | 4.0 | 9.0 | 0.00 | 0.00 | 0.00 | 26 | 1008.4 |
| 20260904195054 | 99 | 179 | 4.0 | 10.0 | 0.00 | 0.00 | 0.00 | 25 | 1008.4 |
| 20260904194630 | 98 | 70 | 3.0 | 10.0 | 0.00 | 0.00 | 0.00 | 27 | 1008.5 |
| 20260904194049 | 98 | 131 | 1.0 | 9.0 | 0.00 | 0.00 | 0.00 | 26 | 1008.4 |
| 20260904193055 | 98 | 211 | 5.0 | 12.0 | 0.00 | 0.00 | 0.00 | 27 | 1008.6 |
| 20260904192553 | 98 | 77 | 3.0 | 9.0 | 0.00 | 0.00 | 0.00 | 28 | 1008.7 |
| 20260904192055 | 97 | 138 | 3.0 | 6.0 | 0.00 | 0.00 | 0.00 | 28 | 1008.8 |
| 20260904191558 | 97 | 150 | 2.0 | 10.0 | 0.00 | 0.00 | 0.00 | 28 | 1008.8 |
| 20260904191050 | 97 | 142 | 4.0 | 10.0 | 0.00 | 0.00 | 0.00 | 28 | 1008.9 |
| 20260904190548 | 97 | 150 | 3.0 | 9.0 | 0.00 | 0.00 | 0.00 | 29 | 1009.0 |
| 20260904190052 | 97 | 211 | 4.0 | 9.0 | 0.00 | 0.00 | 0.00 | 29 | 1009.1 |
| 20260904185545 | 96 | 88 | 2.0 | 5.0 | 0.00 | 0.00 | 0.00 | 30 | 1009.2 |
| 20260904185044 | 96 | 146 | 2.0 | 8.0 | 0.00 | 0.00 | 0.00 | 30 | 1009.3 |
| 20260904184550 | 96 | 127 | 3.0 | 6.0 | 0.00 | 0.00 | 0.00 | 30 | 1009.3 |
| 20260904184041 | 96 | 189 | 5.0 | 11.0 | 0.00 | 0.00 | 0.00 | 30 | 1009.3 |
| 20260904183032 | 96 | 145 | 4.0 | 13.0 | 0.00 | 0.00 | 0.00 | 31 | 1009.5 |
| 20260904182536 | 95 | 56 | 3.0 | 13.0 | 0.00 | 0.00 | 0.00 | 32 | 1009.6 |
| 20260904182032 | 95 | 236 | 4.0 | 10.0 | 0.00 | 0.00 | 0.00 | 32 | 1009.7 |
| 20260904181531 | 95 | 216 | 2.0 | 8.0 | 0.00 | 0.00 | 0.00 | 32 | 1009.8 |
| 20260904181031 | 95 | 229 | 4.0 | 8.0 | 0.00 | 0.00 | 0.00 | 32 | 1009.9 |
| 20260904180532 | 94 | 193 | 3.0 | 9.0 | 0.00 | 0.00 | 0.00 | 34 | 1009.9 |
| 20260904180031 | 95 | 206 | 4.0 | 9.0 | 0.00 | 0.00 | 0.00 | 34 | 1010.0 |
| 20260904175530 | 94 | 185 | 2.0 | 6.0 | 0.00 | 0.00 | 0.00 | 34 | 1010.0 |
| 20260904175028 | 94 | 183 | 2.0 | 7.0 | 0.00 | 0.00 | 0.00 | 34 | 1010.1 |
| 20260904174526 | 94 | 252 | 1.0 | 8.0 | 0.00 | 0.00 | 0.00 | 34 | 1010.2 |
| 20260904174025 | 93 | 256 | 1.0 | 6.0 | 0.00 | 0.00 | 0.00 | 34 | 1010.4 |
| 20260904173035 | 93 | 198 | 3.0 | 8.0 | 0.00 | 0.00 | 0.00 | 34 | 1010.5 |
| 20260904172529 | 93 | 297 | 4.0 | 8.0 | 0.00 | 0.00 | 0.00 | 35 | 1010.5 |
| 20260904172029 | 93 | 301 | 2.0 | 7.0 | 0.00 | 0.00 | 0.00 | 35 | 1010.6 |
| 20260904171538 | 93 | 215 | 3.0 | 7.0 | 0.00 | 0.00 | 0.00 | 35 | 1010.7 |
| 20260904171025 | 93 | 350 | 1.0 | 6.0 | 0.00 | 0.00 | 0.00 | 34 | 1010.6 |
| 20260904170527 | 93 | 334 | 3.0 | 6.0 | 0.00 | 0.00 | 0.00 | 35 | 1010.6 |
| 20260904170023 | 91 | 7 | 2.0 | 9.0 | 0.00 | 0.00 | 0.00 | 38 | 1010.7 |
| 20260904165522 | 90 | 238 | 3.0 | 9.0 | 0.00 | 0.00 | 0.00 | 39 | 1010.7 |
| 20260904165022 | 90 | 256 | 3.0 | 9.0 | 0.00 | 0.00 | 0.00 | 40 | 1010.8 |
| 20260904164524 | 90 | 249 | 3.0 | 8.0 | 0.00 | 0.00 | 0.00 | 39 | 1010.9 |
| 20260904164025 | 89 | 156 | 1.0 | 5.0 | 0.00 | 0.00 | 0.00 | 41 | 1010.8 |
| 20260904163021 | 89 | 257 | 3.0 | 8.0 | 0.00 | 0.00 | 0.00 | 43 | 1010.7 |
| 20260904162521 | 88 | 239 | 3.0 | 7.0 | 0.00 | 0.00 | 0.00 | 45 | 1010.6 |
| 20260904162024 | 87 | 211 | 3.0 | 8.0 | 0.00 | 0.00 | 0.00 | 46 | 1010.7 |
| 20260904161523 | 87 | 200 | 5.0 | 8.0 | 0.00 | 0.00 | 0.00 | 47 | 1010.8 |
| 20260904161019 | 87 | 257 | 5.0 | 10.0 | 0.00 | 0.00 | 0.00 | 47 | 1010.7 |
| 20260904160519 | 86 | 227 | 6.0 | 10.0 | 0.00 | 0.00 | 0.00 | 48 | 1010.7 |
| 20260904160020 | 86 | 252 | 6.0 | 9.0 | 0.00 | 0.00 | 0.00 | 49 | 1010.7 |
| 20260904155518 | 86 | 234 | 3.0 | 9.0 | 0.00 | 0.00 | 0.00 | 50 | 1010.7 |
| 20260904155017 | 85 | 231 | 5.0 | 10.0 | 0.00 | 0.00 | 0.00 | 50 | 1010.7 |
| 20260904154517 | 85 | 215 | 4.0 | 11.0 | 0.00 | 0.00 | 0.00 | 51 | 1010.5 |
| 20260904154017 | 85 | 196 | 4.0 | 11.0 | 0.00 | 0.00 | 0.00 | 52 | 1010.6 |
| 20260904153022 | 84 | 219 | 7.0 | 11.0 | 0.00 | 0.00 | 0.00 | 53 | 1010.6 |
| 20260904152514 | 84 | 231 | 6.0 | 10.0 | 0.00 | 0.00 | 0.00 | 53 | 1010.7 |
| 20260904152013 | 84 | 200 | 4.0 | 9.0 | 0.00 | 0.00 | 0.00 | 54 | 1010.6 |
| 20260904151525 | 83 | 198 | 6.0 | 10.0 | 0.00 | 0.00 | 0.00 | 55 | 1010.6 |
| 20260904151013 | 83 | 214 | 6.0 | 10.0 | 0.00 | 0.00 | 0.00 | 55 | 1010.6 |
| 20260904150513 | 83 | 229 | 5.0 | 9.0 | 0.00 | 0.00 | 0.00 | 55 | 1010.8 |
| 20260904150013 | 83 | 225 | 4.0 | 9.0 | 0.00 | 0.00 | 0.00 | 55 | 1010.8 |
| 20260904145513 | 82 | 223 | 6.0 | 9.0 | 0.00 | 0.00 | 0.00 | 56 | 1010.9 |
| 20260904145013 | 82 | 234 | 4.0 | 9.0 | 0.00 | 0.00 | 0.00 | 56 | 1010.9 |
| 20260904144512 | 82 | 175 | 5.0 | 9.0 | 0.00 | 0.00 | 0.00 | 56 | 1011.0 |
| 20260904144013 | 82 | 197 | 6.0 | 10.0 | 0.00 | 0.00 | 0.00 | 57 | 1011.0 |
| 20260904143013 | 81 | 206 | 7.0 | 11.0 | 0.00 | 0.00 | 0.00 | 57 | 1010.9 |
| 20260904142514 | 81 | 203 | 5.0 | 10.0 | 0.00 | 0.00 | 0.00 | 58 | 1010.9 |
| 20260904142013 | 81 | 206 | 6.0 | 10.0 | 0.00 | 0.00 | 0.00 | 58 | 1011.0 |
| 20260904141513 | 81 | 229 | 6.0 | 10.0 | 0.00 | 0.00 | 0.00 | 58 | 1010.8 |
| 20260904141017 | 81 | 209 | 6.0 | 12.0 | 0.00 | 0.00 | 0.00 | 58 | 1010.9 |
| 20260904140512 | 81 | 191 | 7.0 | 12.0 | 0.00 | 0.00 | 0.00 | 58 | 1010.7 |
| 20260904140012 | 81 | 193 | 8.0 | 11.0 | 0.00 | 0.00 | 0.00 | 58 | 1010.8 |
| 20260904135513 | 81 | 210 | 3.0 | 9.0 | 0.00 | 0.00 | 0.00 | 58 | 1011.0 |
| 20260904135011 | 81 | 187 | 5.0 | 9.0 | 0.00 | 0.00 | 0.00 | 58 | 1011.0 |
| 20260904134509 | 81 | 223 | 5.0 | 9.0 | 0.00 | 0.00 | 0.00 | 58 | 1010.8 |
| 20260904134009 | 81 | 244 | 4.0 | 9.0 | 0.00 | 0.00 | 0.00 | 58 | 1010.8 |
| 20260904133019 | 80 | 230 | 5.0 | 8.0 | 0.00 | 0.00 | 0.00 | 59 | 1010.6 |
| 20260904132517 | 80 | 177 | 2.0 | 7.0 | 0.00 | 0.00 | 0.00 | 59 | 1010.6 |
| 20260904132015 | 80 | 150 | 3.0 | 7.0 | 0.00 | 0.00 | 0.00 | 59 | 1010.4 |
| 20260904131515 | 80 | 200 | 3.0 | 6.0 | 0.00 | 0.00 | 0.00 | 59 | 1010.1 |
| 20260904131013 | 80 | 173 | 3.0 | 8.0 | 0.00 | 0.00 | 0.00 | 60 | 1010.0 |
| 20260904130512 | 79 | 196 | 5.0 | 8.0 | 0.00 | 0.00 | 0.00 | 60 | 1009.9 |
| 20260904130012 | 79 | 183 | 4.0 | 9.0 | 0.00 | 0.00 | 0.00 | 60 | 1009.9 |
| 20260904125512 | 79 | 190 | 5.0 | 9.0 | 0.00 | 0.00 | 0.00 | 60 | 1009.8 |
| 20260904125012 | 79 | 172 | 2.0 | 5.0 | 0.00 | 0.00 | 0.00 | 60 | 1009.8 |
| 20260904124511 | 79 | 187 | 2.0 | 4.0 | 0.00 | 0.00 | 0.00 | 60 | 1009.7 |
| 20260904124009 | 79 | 188 | 2.0 | 4.0 | 0.00 | 0.00 | 0.00 | 59 | 1009.6 |
| 20260904123001 | 79 | 189 | 2.0 | 5.0 | 0.00 | 0.00 | 0.00 | 59 | 1009.6 |
| 20260904122503 | 79 | 189 | 2.0 | 5.0 | 0.00 | 0.00 | 0.00 | 59 | 1009.5 |
| 20260904122101 | 79 | 190 | 2.0 | 5.0 | 0.00 | 0.00 | 0.00 | 59 | 1009.4 |
| 20260904121600 | 79 | 190 | 3.0 | 7.0 | 0.00 | 0.00 | 0.00 | 58 | 1009.4 |
| 20260904121059 | 80 | 161 | 2.0 | 7.0 | 0.00 | 0.00 | 0.00 | 58 | 1009.2 |
| 20260904120558 | 80 | 180 | 2.0 | 5.0 | 0.00 | 0.00 | 0.00 | 58 | 1009.3 |
| 20260904120058 | 80 | 180 | 2.0 | 5.0 | 0.00 | 0.00 | 0.00 | 57 | 1009.2 |
| 20260904115556 | 80 | 184 | 2.0 | 5.0 | 0.00 | 0.00 | 0.00 | 57 | 1009.2 |
| 20260904115156 | 80 | 183 | 2.0 | 6.0 | 0.00 | 0.00 | 0.00 | 57 | 1009.1 |
| 20260904114556 | 80 | 183 | 4.0 | 8.0 | 0.00 | 0.00 | 0.00 | 57 | 1009.2 |
| 20260904114055 | 80 | 194 | 3.0 | 8.0 | 0.00 | 0.00 | 0.00 | 57 | 1009.1 |
| 20260904113054 | 81 | 195 | 3.0 | 8.0 | 0.00 | 0.00 | 0.00 | 56 | 1009.1 |
| 20260904112552 | 81 | 199 | 4.0 | 8.0 | 0.00 | 0.00 | 0.00 | 56 | 1009.1 |
| 20260904112052 | 81 | 187 | 4.0 | 10.0 | 0.00 | 0.00 | 0.00 | 56 | 1009.2 |
| 20260904111552 | 81 | 206 | 7.0 | 13.0 | 0.00 | 0.00 | 0.00 | 55 | 1009.0 |
| 20260904111051 | 81 | 201 | 6.0 | 10.0 | 0.00 | 0.00 | 0.00 | 55 | 1009.0 |
| 20260904110552 | 82 | 202 | 7.0 | 12.0 | 0.00 | 0.00 | 0.00 | 55 | 1009.0 |
| 20260904110048 | 82 | 208 | 6.0 | 15.0 | 0.00 | 0.00 | 0.00 | 55 | 1009.0 |
| 20260904105547 | 82 | 198 | 9.0 | 15.0 | 0.00 | 0.00 | 0.00 | 55 | 1008.9 |
| 20260904105045 | 81 | 188 | 9.0 | 15.0 | 0.00 | 0.00 | 0.00 | 55 | 1009.0 |
| 20260904104545 | 81 | 206 | 7.0 | 12.0 | 0.00 | 0.00 | 0.00 | 55 | 1009.1 |
| 20260904104046 | 81 | 185 | 5.0 | 9.0 | 0.00 | 0.00 | 0.00 | 55 | 1009.1 |
| 20260904103049 | 81 | 187 | 3.0 | 5.0 | 0.00 | 0.00 | 0.00 | 54 | 1009.1 |
| 20260904102541 | 82 | 194 | 3.0 | 5.0 | 0.00 | 0.00 | 0.00 | 54 | 1009.2 |